VOZ1495 YBBN-YBHM

Flight info

Callsign VOZ1495
Flight time 1h 16m
Altitude 38000
Route BN Q67 OVRON
Aircraft B38M/M-SDE1FGHILORVWXY/HB1

Departure

Time 2026-04-28 16:31
Airport Brisbane International Airport (YBBN)

Arrival

Time 2026-04-28 17:47
Airport Hamilton Island Airport (YBHM)
Time Latitude Longitude Altitude Speed Heading
2026-04-28 16:31 -27.32798 153.05188 12289 ft 334 kts
2026-04-28 16:31 -27.30461 153.05308 13299 ft 338 kts
2026-04-28 16:31 -27.28086 153.05430 14241 ft 344 kts
2026-04-28 16:31 -27.25680 153.05547 15136 ft 348 kts
2026-04-28 16:32 -27.23246 153.05669 15985 ft 354 kts
2026-04-28 16:32 -27.18253 153.05912 17485 ft 363 kts
2026-04-28 16:32 -27.15712 153.06036 18209 ft 367 kts
2026-04-28 16:33 -27.13149 153.06160 18877 ft 371 kts
2026-04-28 16:33 -27.11430 153.06243 19302 ft 373 kts
2026-04-28 16:33 -27.07969 153.06413 20145 ft 378 kts
2026-04-28 16:33 -27.05335 153.06542 20786 ft 380 kts
2026-04-28 16:34 -27.02685 153.06672 21421 ft 383 kts
2026-04-28 16:34 -27.00016 153.06803 22031 ft 386 kts
2026-04-28 16:34 -26.97318 153.06936 22663 ft 389 kts
2026-04-28 16:34 -26.94600 153.07069 23272 ft 392 kts
2026-04-28 16:35 -26.91861 153.07205 23850 ft 395 kts
2026-04-28 16:35 -26.89108 153.07341 24340 ft 398 kts
2026-04-28 16:35 -26.86322 153.07479 24812 ft 401 kts
2026-04-28 16:35 -26.83523 153.07617 25259 ft 405 kts
2026-04-28 16:36 -26.80701 153.07758 25729 ft 407 kts
2026-04-28 16:36 -26.77860 153.07898 26218 ft 409 kts
2026-04-28 16:36 -26.74976 153.08036 26360 ft 421 kts
2026-04-28 16:36 -26.72043 153.08170 26464 ft 433 kts
2026-04-28 16:37 -26.69028 153.08314 26966 ft 434 kts
2026-04-28 16:37 -26.65996 153.08464 27375 ft 438 kts
2026-04-28 16:37 -26.62947 153.08616 27795 ft 441 kts
2026-04-28 16:38 -26.56767 153.08930 28565 ft 448 kts
2026-04-28 16:38 -26.53643 153.09089 28966 ft 450 kts
2026-04-28 16:38 -26.50506 153.09247 29360 ft 453 kts
2026-04-28 16:38 -26.47349 153.09408 29765 ft 455 kts
2026-04-28 16:39 -26.44174 153.09570 30120 ft 459 kts
2026-04-28 16:39 -26.40976 153.09732 30462 ft 461 kts 360°
2026-04-28 16:39 -26.37751 153.09896 30790 ft 464 kts
2026-04-28 16:39 -26.34521 153.10061 31109 ft 466 kts
2026-04-28 16:40 -26.31281 153.10143 31438 ft 465 kts 353°
2026-04-28 16:40 -26.28143 153.09467 31907 ft 457 kts 339°
2026-04-28 16:40 -26.25300 153.07920 32310 ft 453 kts 325°
2026-04-28 16:40 -26.22702 153.05961 32803 ft 450 kts 323°
2026-04-28 16:41 -26.20137 153.03956 33261 ft 449 kts 322°
2026-04-28 16:41 -26.17632 153.01956 33681 ft 448 kts 322°
2026-04-28 16:41 -26.15078 152.99892 34156 ft 447 kts 322°
2026-04-28 16:41 -26.12608 152.97882 34526 ft 446 kts 322°
2026-04-28 16:42 -26.10098 152.95859 34907 ft 445 kts 322°
2026-04-28 16:42 -26.07590 152.93843 35291 ft 443 kts 322°
2026-04-28 16:42 -26.05098 152.91841 35678 ft 441 kts 322°
2026-04-28 16:42 -26.02617 152.89849 36061 ft 439 kts 321°
2026-04-28 16:43 -26.00147 152.87866 36438 ft 437 kts 321°
2026-04-28 16:43 -25.97683 152.85890 36811 ft 436 kts 321°
2026-04-28 16:43 -25.95232 152.83924 37172 ft 434 kts 321°
2026-04-28 16:43 -25.92787 152.81965 37467 ft 433 kts 321°
2026-04-28 16:44 -25.90346 152.80009 37810 ft 430 kts 320°
2026-04-28 16:44 -25.87928 152.78074 38164 ft 428 kts 320°
2026-04-28 16:44 -25.85512 152.76141 38184 ft 427 kts 320°
2026-04-28 16:45 -25.80716 152.72307 38183 ft 424 kts 320°
2026-04-28 16:45 -25.75950 152.68500 38162 ft 424 kts 320°
2026-04-28 16:46 -25.71156 152.64675 38161 ft 424 kts 320°
2026-04-28 16:46 -25.66364 152.60856 38161 ft 424 kts 320°
2026-04-28 16:47 -25.61568 152.57036 38167 ft 424 kts 320°
2026-04-28 16:47 -25.56782 152.53229 38166 ft 421 kts 320°
2026-04-28 16:48 -25.52025 152.49449 38164 ft 421 kts 320°
2026-04-28 16:48 -25.47288 152.45688 38152 ft 421 kts 320°
2026-04-28 16:49 -25.42525 152.41911 38154 ft 421 kts 320°
2026-04-28 16:49 -25.37754 152.38130 38149 ft 421 kts 320°
2026-04-28 16:50 -25.32986 152.34356 38149 ft 421 kts 320°
2026-04-28 16:50 -25.28209 152.30578 38150 ft 422 kts 320°
2026-04-28 16:51 -25.23450 152.26819 38144 ft 419 kts 319°
2026-04-28 16:51 -25.18714 152.23081 38146 ft 418 kts 319°
2026-04-28 16:52 -25.13979 152.19348 38150 ft 418 kts 319°
2026-04-28 16:52 -25.09271 152.15639 38145 ft 418 kts 319°
2026-04-28 16:53 -25.04535 152.11912 38145 ft 418 kts 319°
2026-04-28 16:53 -24.99792 152.08195 38139 ft 418 kts 319°
2026-04-28 16:54 -24.95038 152.04472 38143 ft 419 kts 319°
2026-04-28 16:54 -24.90287 152.00755 38137 ft 418 kts 319°
2026-04-28 16:55 -24.85541 151.97045 38137 ft 418 kts 319°
2026-04-28 16:55 -24.80795 151.93339 38132 ft 419 kts 319°
2026-04-28 16:56 -24.76063 151.89647 38139 ft 420 kts 319°
2026-04-28 16:56 -24.71295 151.85931 38130 ft 420 kts 319°
2026-04-28 16:57 -24.66528 151.82218 38130 ft 420 kts 319°
2026-04-28 16:57 -24.61762 151.78510 38093 ft 419 kts 319°
2026-04-28 16:58 -24.57016 151.74821 38133 ft 418 kts 319°
2026-04-28 16:58 -24.52255 151.71125 38127 ft 417 kts 319°
2026-04-28 16:59 -24.47510 151.67444 38131 ft 418 kts 319°
2026-04-28 16:59 -24.42762 151.63765 38128 ft 417 kts 319°
2026-04-28 17:00 -24.38002 151.60079 38134 ft 421 kts 319°
2026-04-28 17:00 -24.33249 151.56402 38122 ft 420 kts 319°
2026-04-28 17:01 -24.28473 151.52711 38083 ft 420 kts 319°
2026-04-28 17:01 -24.23696 151.49023 38119 ft 420 kts 319°
2026-04-28 17:02 -24.18921 151.45340 38114 ft 420 kts 319°
2026-04-28 17:02 -24.14143 151.41657 38118 ft 420 kts 319°
2026-04-28 17:03 -24.06979 151.36143 38107 ft 420 kts 319°
2026-04-28 17:03 -24.02201 151.32468 38092 ft 421 kts 319°
2026-04-28 17:04 -23.95014 151.26949 38068 ft 422 kts 320°
2026-04-28 17:05 -23.87787 151.21405 38098 ft 423 kts 320°
2026-04-28 17:06 -23.80137 151.16474 38096 ft 426 kts 324°
2026-04-28 17:06 -23.72471 151.11551 38101 ft 426 kts 324°
2026-04-28 17:07 -23.67363 151.08269 38108 ft 426 kts 324°
2026-04-28 17:07 -23.62250 151.04986 38071 ft 426 kts 324°
2026-04-28 17:08 -23.57153 151.01716 38103 ft 429 kts 324°
2026-04-28 17:08 -23.52001 150.98414 38102 ft 428 kts 324°
2026-04-28 17:09 -23.46864 150.95125 38105 ft 429 kts 324°
2026-04-28 17:09 -23.41714 150.91830 38102 ft 428 kts 324°
2026-04-28 17:10 -23.36575 150.88547 38103 ft 429 kts 324°
2026-04-28 17:10 -23.31432 150.85262 38105 ft 429 kts 324°
2026-04-28 17:11 -23.27151 150.82531 38098 ft 428 kts 325°
2026-04-28 17:11 -23.21176 150.78722 38099 ft 428 kts 325°
2026-04-28 17:12 -23.16898 150.75998 38104 ft 428 kts 325°
2026-04-28 17:12 -23.11747 150.72720 38100 ft 430 kts 325°
2026-04-28 17:13 -23.06577 150.69433 38105 ft 430 kts 325°
2026-04-28 17:13 -23.01409 150.66150 38100 ft 430 kts 325°
2026-04-28 17:14 -22.96237 150.62868 38083 ft 430 kts 325°
2026-04-28 17:14 -22.91066 150.59590 38077 ft 430 kts 325°
2026-04-28 17:15 -22.85896 150.56314 38128 ft 432 kts 326°
2026-04-28 17:15 -22.80724 150.53041 38093 ft 430 kts 325°
2026-04-28 17:16 -22.75552 150.49770 38085 ft 430 kts 326°
2026-04-28 17:16 -22.70381 150.46504 38089 ft 430 kts 325°
2026-04-28 17:17 -22.65193 150.43228 38060 ft 432 kts 326°
2026-04-28 17:17 -22.60006 150.39957 38081 ft 432 kts 326°
2026-04-28 17:18 -22.54843 150.36704 38083 ft 432 kts 326°
2026-04-28 17:18 -22.49653 150.33436 38079 ft 432 kts 326°
2026-04-28 17:19 -22.44463 150.30172 38079 ft 432 kts 326°
2026-04-28 17:19 -22.39267 150.26905 38073 ft 432 kts 326°
2026-04-28 17:20 -22.34945 150.24191 38076 ft 432 kts 326°
2026-04-28 17:20 -22.28876 150.20382 38070 ft 431 kts 326°
2026-04-28 17:21 -22.23820 150.17006 38062 ft 430 kts 324°
2026-04-28 17:22 -22.16200 150.11837 38081 ft 432 kts 324°
2026-04-28 17:22 -22.11104 150.08389 38040 ft 432 kts 324°
2026-04-28 17:23 -22.06029 150.04959 37576 ft 430 kts 324°
2026-04-28 17:23 -22.03493 150.03246 37319 ft 430 kts 324°
2026-04-28 17:23 -22.00954 150.01531 37098 ft 431 kts 324°
2026-04-28 17:23 -21.98409 149.99815 36830 ft 432 kts 324°
2026-04-28 17:24 -21.95859 149.98094 36594 ft 433 kts 324°
2026-04-28 17:24 -21.93309 149.96374 36359 ft 434 kts 324°
2026-04-28 17:24 -21.90744 149.94646 36122 ft 434 kts 324°
2026-04-28 17:24 -21.88199 149.92931 35444 ft 432 kts 324°
2026-04-28 17:25 -21.85625 149.91196 34369 ft 438 kts 324°
2026-04-28 17:25 -21.80531 149.87770 32559 ft 426 kts 324°
2026-04-28 17:25 -21.78034 149.86090 31925 ft 425 kts 324°
2026-04-28 17:26 -21.75457 149.84357 31170 ft 438 kts 324°
2026-04-28 17:26 -21.72886 149.82630 30310 ft 444 kts 324°
2026-04-28 17:26 -21.70252 149.80860 29310 ft 448 kts 324°
2026-04-28 17:26 -21.67594 149.79076 28409 ft 452 kts 324°
2026-04-28 17:27 -21.64913 149.77277 27757 ft 456 kts 324°
2026-04-28 17:27 -21.62217 149.75468 27069 ft 457 kts 324°
2026-04-28 17:27 -21.59531 149.73667 26386 ft 454 kts 324°
2026-04-28 17:27 -21.56862 149.71878 25705 ft 450 kts 324°
2026-04-28 17:28 -21.54218 149.70107 25028 ft 445 kts 324°
2026-04-28 17:28 -21.49012 149.66621 23692 ft 437 kts 324°
2026-04-28 17:28 -21.46439 149.64901 22921 ft 433 kts 324°
2026-04-28 17:29 -21.43893 149.63198 22251 ft 430 kts 325°
2026-04-28 17:29 -21.41367 149.61509 21597 ft 426 kts 325°
2026-04-28 17:29 -21.38857 149.59832 20952 ft 423 kts 325°
2026-04-28 17:30 -21.33888 149.56511 19689 ft 417 kts 326°
2026-04-28 17:30 -21.29030 149.53273 18472 ft 411 kts 326°
2026-04-28 17:30 -21.26604 149.51654 17793 ft 408 kts 327°
2026-04-28 17:31 -21.24213 149.50061 17167 ft 402 kts 326°
2026-04-28 17:31 -21.19517 149.46930 15991 ft 391 kts 326°
2026-04-28 17:32 -21.14956 149.43894 14880 ft 382 kts 326°
2026-04-28 17:32 -21.12713 149.42401 14371 ft 376 kts 326°
2026-04-28 17:32 -21.10502 149.40930 13827 ft 372 kts 326°
2026-04-28 17:32 -21.08312 149.39474 13232 ft 369 kts 326°
2026-04-28 17:33 -21.06136 149.38027 12716 ft 367 kts 326°
2026-04-28 17:33 -21.03966 149.36583 12200 ft 369 kts 327°
2026-04-28 17:33 -21.01786 149.35137 11780 ft 365 kts 327°
2026-04-28 17:33 -21.00386 149.34208 11652 ft 350 kts 327°
2026-04-28 17:34 -20.97728 149.32444 11420 ft 322 kts 327°
2026-04-28 17:34 -20.95902 149.31232 11250 ft 304 kts 327°
2026-04-28 17:34 -20.94156 149.30074 11093 ft 287 kts 327°
2026-04-28 17:34 -20.92507 149.28980 10963 ft 274 kts 327°
2026-04-28 17:35 -20.90884 149.27903 10825 ft 278 kts 328°
2026-04-28 17:35 -20.89205 149.26790 10687 ft 287 kts 328°
2026-04-28 17:35 -20.87492 149.25655 10535 ft 291 kts 328°
2026-04-28 17:35 -20.85763 149.24510 10363 ft 293 kts 328°
2026-04-28 17:36 -20.84018 149.23354 10203 ft 296 kts 328°
2026-04-28 17:36 -20.82267 149.22194 10025 ft 296 kts 328°
2026-04-28 17:36 -20.80515 149.21035 9702 ft 297 kts 328°
2026-04-28 17:36 -20.78745 149.19864 9334 ft 300 kts 329°
2026-04-28 17:37 -20.76972 149.18690 9010 ft 299 kts 328°
2026-04-28 17:37 -20.75204 149.17521 8690 ft 298 kts 329°
2026-04-28 17:37 -20.73439 149.16355 8352 ft 298 kts 330°
2026-04-28 17:37 -20.71678 149.15189 8026 ft 297 kts 329°
2026-04-28 17:38 -20.69927 149.14031 7726 ft 295 kts 330°
2026-04-28 17:38 -20.68180 149.12877 7404 ft 295 kts 330°
2026-04-28 17:38 -20.66462 149.11743 7098 ft 294 kts 329°
2026-04-28 17:38 -20.64720 149.10593 6777 ft 294 kts 330°
2026-04-28 17:39 -20.62980 149.09445 6458 ft 294 kts 331°
2026-04-28 17:39 -20.61242 149.08298 6113 ft 294 kts 330°
2026-04-28 17:39 -20.57802 149.06028 5498 ft 286 kts 330°
2026-04-28 17:40 -20.56134 149.04927 5173 ft 278 kts 330°
2026-04-28 17:40 -20.54514 149.03859 4861 ft 270 kts 330°
2026-04-28 17:40 -20.52943 149.02823 4541 ft 261 kts 331°
2026-04-28 17:40 -20.51416 149.01817 4261 ft 253 kts 331°
2026-04-28 17:41 -20.49948 149.00850 4044 ft 241 kts 331°
2026-04-28 17:41 -20.48569 148.99940 3920 ft 225 kts 331°
2026-04-28 17:41 -20.47274 148.99086 3801 ft 215 kts 330°
2026-04-28 17:41 -20.46003 148.98251 3709 ft 214 kts 331°
2026-04-28 17:42 -20.44744 148.97422 3641 ft 212 kts 331°
2026-04-28 17:42 -20.43916 148.96876 3575 ft 211 kts 332°
2026-04-28 17:42 -20.42302 148.95657 3380 ft 215 kts 319°
2026-04-28 17:42 -20.41227 148.94548 3258 ft 213 kts 317°
2026-04-28 17:43 -20.40190 148.93473 3148 ft 207 kts 317°
2026-04-28 17:43 -20.39171 148.92423 2956 ft 204 kts 317°
2026-04-28 17:43 -20.38143 148.91372 2702 ft 203 kts 316°
2026-04-28 17:43 -20.37136 148.90344 2462 ft 194 kts 317°
2026-04-28 17:44 -20.36213 148.89401 2332 ft 175 kts 317°
2026-04-28 17:44 -20.35329 148.88514 2097 ft 175 kts 320°
2026-04-28 17:44 -20.34299 148.87857 1879 ft 171 kts 344°
2026-04-28 17:44 -20.33161 148.87705 1519 ft 159 kts 17°
2026-04-28 17:45 -20.32237 148.88177 1354 ft 143 kts 56°
2026-04-28 17:45 -20.31799 148.89037 1264 ft 127 kts 86°
2026-04-28 17:45 -20.31703 148.89972 1138 ft 127 kts 95°
2026-04-28 17:45 -20.31739 148.90901 1060 ft 123 kts 103°
2026-04-28 17:46 -20.31963 148.91772 840 ft 120 kts 116°
2026-04-28 17:46 -20.32416 148.92476 672 ft 115 kts 136°
2026-04-28 17:46 -20.33063 148.93008 566 ft 118 kts 141°
2026-04-28 17:46 -20.33716 148.93530 401 ft 119 kts 142°
2026-04-28 17:47 -20.34380 148.94071 259 ft 126 kts 144°
2026-04-28 17:47 -20.35077 148.94626 63 ft 120 kts 144°
2026-04-28 17:47 -20.35628 148.95071 27 ft 50 kts 144°
2026-04-28 17:47 -20.35695 148.95123 25 ft 2 kts 142°
2026-04-28 17:48 -20.35725 148.95149 27 ft 3 kts 237°
2026-04-28 17:48 -20.35659 148.95086 29 ft 23 kts 338°
2026-04-28 17:48 -20.35513 148.94977 25 ft 28 kts 323°
2026-04-28 17:48 -20.35392 148.94963 23 ft 16 kts 47°
2026-04-28 17:49 -20.35351 148.95038 23 ft 10 kts 40°
2026-04-28 17:49 -20.35336 148.95048 24 ft 0 kts 28°